AO-07 1 07530U 74089B 19080.88464321 -.00000049 00000-0 -28054-4 0 9995 2 07530 101.7336 49.4942 0012217 156.9470 258.7185 12.53637254 29392 UO-11 1 14781U 84021B 19080.64146256 .00000061 00000-0 13662-4 0 9997 2 14781 97.6204 109.5275 0007070 248.0329 112.0134 14.83070693885567 LO-19 1 20442U 90005G 19079.80143138 -.00000001 00000-0 15792-4 0 9990 2 20442 98.6404 21.9941 0012780 57.4340 302.8076 14.32919836523509 HUBBLE 1 20580U 90037B 19080.26282192 .00000520 00000-0 20790-4 0 9993 2 20580 28.4707 83.2676 0002598 232.6628 127.3723 15.09191453387360 MET-2/21 1 22782U 93055A 19080.52430122 .00000016 00000-0 51813-6 0 9991 2 22782 82.5482 233.8180 0023385 70.0531 353.4507 13.83816067290533 AO-27 1 22825U 93061C 19080.43211515 -.00000015 00000-0 12194-4 0 9996 2 22825 98.8975 67.0604 0007314 257.6035 102.4328 14.30053728329190 IO-26 1 22826U 93061D 19079.89495684 -.00000015 00000-0 12002-4 0 9994 2 22826 98.8914 66.5144 0007903 247.2282 112.8065 14.30386748329318 FO-29 1 24278U 96046B 19079.70873939 -.00000010 00000-0 22610-4 0 9997 2 24278 098.5234 245.3863 0351330 113.3620 250.4885 13.53089890115384 NOAA-15 1 25338U 98030A 19080.51030111 .00000013 00000-0 24227-4 0 9996 2 25338 98.7549 101.9022 0011265 138.2351 221.9691 14.25898716 84540 GO-32 1 25397U 98043D 19079.58949506 -.00000026 00000-0 79126-5 0 9991 2 25397 098.6809 020.8657 0000659 001.3466 358.7714 14.23661942074831 ISS 1 25544U 98067A 19080.87963804 .00001120 00000-0 25206-4 0 9996 2 25544 51.6410 75.2566 0003900 124.5658 310.7726 15.52836160161699 NO-44 1 26931U 01043C 19079.87030098 -.00000046 00000-0 14270-4 0 9999 2 26931 067.0501 235.4595 0005441 275.3367 084.7113 14.30535603912053 SO-50 1 27607U 02058C 19080.76102506 -.00000015 00000-0 18787-4 0 9994 2 27607 64.5554 321.4879 0082350 273.4616 85.7070 14.75528526873914 CO-55 1 27844U 03031E 19080.58396273 .00000041 00000-0 38349-4 0 9999 2 27844 98.6869 90.1190 0008720 291.5278 68.4970 14.22165746815628 CO-57 1 27848U 03031J 19079.98778861 .00000024 00000-0 30890-4 0 9996 2 27848 98.6948 90.0110 0008728 305.8693 54.1673 14.21762399815391 RS-22 1 27939U 03042A 19080.88752970 .00000000 00000-0 86265-5 0 9995 2 27939 98.0236 218.5113 0012483 355.7867 4.3242 14.66761553827523 NOAA-18 1 28654U 05018A 19080.44914124 .00000036 00000-0 44363-4 0 9999 2 28654 99.1085 126.0293 0015145 70.9333 289.3477 14.12410510712923 CO-58 1 28895U 05043F 19079.81598374 .00000119 00000-0 31739-4 0 9993 2 28895 97.9436 225.7030 0015431 275.5484 84.3959 14.63639838714337 Falconsat-3 1 30776U 07006E 19079.92640250 .00002639 00000-0 75469-4 0 9995 2 30776 035.4354 303.4027 0002747 351.6307 008.4373 15.35767201666878 CO-65 1 32785U 08021C 19080.73640973 .00000179 00000-0 24908-4 0 9997 2 32785 97.5494 84.6524 0012689 191.3103 168.7831 14.88265737590456 AAUSAT2 1 32788U 08021F 19080.61194318 .00000558 00000-0 56466-4 0 9999 2 32788 97.5034 100.2605 0013053 133.5266 226.7042 14.94633880591611 DO-64 1 32789U 08021G 19080.70087908 .00001330 00000-0 93378-4 0 9998 2 32789 97.4755 133.0115 0013729 73.4551 286.8184 15.06729782593561 CO-66 1 32791U 08021J 19079.76290419 .00000373 00000-0 43252-4 0 9990 2 32791 097.5303 089.5936 0013599 170.8830 189.2639 14.90755689590630 RS-30 1 32953U 08025A 19080.70972820 .00000020 00000-0 75656-4 0 9995 2 32953 82.5064 200.0852 0018180 326.0085 33.9826 12.43088202491250 PRISM 1 33493U 09002B 19080.73983259 .00000086 00000-0 13176-4 0 9993 2 33493 98.1232 358.3268 0016302 114.4841 245.8082 14.96550070551848 NOAA-19 1 33591U 09005A 19080.56849987 .00000009 00000-0 30459-4 0 9993 2 33591 99.1751 69.5592 0012966 268.5907 91.3779 14.12340075521328 TISAT-1 1 36799U 10035E 19079.89311287 .00000492 00000-0 55837-4 0 9995 2 36799 98.1414 229.1403 0012680 26.7315 333.4554 14.91030194471387 JUGNU 1 37839U 11058B 19080.45900839 .00000359 00000-0 49845-4 0 9992 2 37839 19.9599 155.8896 0019070 63.8631 37.3408 14.12645137384622 SRMSAT 1 37841U 11058D 19079.75142993 .00000299 00000-0 18868-4 0 9999 2 37841 19.9709 215.0971 0011787 289.0781 212.9472 14.10626807383976 AO-71 1 37854U 11061E 19080.81828100 .00000816 00000-0 49867-4 0 9995 2 37854 101.7137 293.3505 0161444 329.7986 29.3994 15.06204697403610 HRBE 1 37855U 11061F 19080.79845424 .00000927 00000-0 54603-4 0 9998 2 37855 101.7269 290.7140 0174268 340.2672 19.1852 15.05205793403405 ALMASAT-1 1 38078U 12006B 19080.32559848 .00024443 40414-5 16524-3 0 9993 2 38078 69.4283 160.9551 0182781 41.0206 357.5989 15.56318912383558 HORYU-2 1 38340U 12025D 19079.93722627 .00000166 00000-0 32356-4 0 9998 2 38340 98.3403 115.7830 0012491 54.8654 305.3723 14.75680821367923 RS-40 1 38735U 12041C 19079.69034600 .00000014 00000-0 30605-4 0 9991 2 38735 082.4730 284.2096 0017834 072.2333 288.0688 12.42577916301374 BEESAT-3 1 39135U 13015F 19080.83260080 .00000626 00000-0 41128-4 0 9990 2 39135 64.8689 325.3478 0009985 299.1213 60.8913 15.17270395326765 BEESAT-2 1 39136U 13015G 19079.84772218 .00000729 00000-0 46914-4 0 9993 2 39136 064.8709 332.0714 0011466 295.3936 064.6003 15.16712928326151 ZACUBE-1 1 39417U 13066B 19080.72941486 .00000177 00000-0 28686-4 0 9998 2 39417 97.5684 99.2052 0058058 326.9493 32.8097 14.81071343287877 TRITON-1 1 39427U 13066M 19079.94892841 .00000202 00000-0 39788-4 0 9995 2 39427 97.6680 62.9182 0115417 92.7871 268.6552 14.67793863285175 GOMX-1 1 39430U 13066Q 19080.82412614 .00000128 00000-0 32043-4 0 9998 2 39430 97.7348 43.2876 0151326 173.9298 186.3787 14.59208644283642 LO-74 1 39440U 13066AA 19079.78070284 .00000228 00000-0 38586-4 0 9994 2 39440 97.6016 83.5321 0080791 18.1607 342.2460 14.75808878286712 AO-73 1 39444U 13066AE 19080.57623118 .00000248 00000-0 37041-4 0 9994 2 39444 97.5672 100.9156 0057056 321.6486 38.0677 14.81880603286733 SPROUT 1 39770U 14029E 19080.82450923 .00000775 00000-0 92152-4 0 9995 2 39770 97.8791 184.7443 0009639 26.9447 333.2250 14.87221017261627 DUCHIFAT-1 1 40021U 14033M 19080.73271131 .00000510 00000-0 58049-4 0 9997 2 40021 97.9225 5.0474 0012760 350.3465 9.7506 14.90551218258294 NANOSATCBR1 1 40024U 14033Q 19080.78008647 .00000357 00000-0 43105-4 0 9991 2 40024 97.9133 2.7369 0012160 353.8460 6.2606 14.89776507258201 EO-79 1 40025U 14033R 19080.72178961 .00000309 00000-0 38984-4 0 9999 2 40025 97.9066 0.5510 0012454 359.2256 0.8940 14.88886290258087 DTUSAT-2 1 40030U 14033W 19080.76088452 .00000241 00000-0 31957-4 0 9992 2 40030 97.8993 358.8941 0011824 354.9722 5.1374 14.88484536258028 EO-80 1 40032U 14033Y 19080.76294887 .00000254 00000-0 33452-4 0 9991 2 40032 97.9000 358.8976 0011790 355.6150 4.4961 14.88425048258019 ANTELSAT 1 40034U 14033AA 19080.10377133 .00000204 00000-0 37669-4 0 9996 2 40034 97.7744 311.0155 0059531 26.7693 333.6567 14.74059414255478 VELOX-1 1 40057U 14034E 19080.76512561 .00000297 00000-0 49126-4 0 9993 2 40057 98.2214 202.0054 0011586 152.0846 208.0993 14.77605958254637 DAURIA DX 1 1 40071U 14037C 19080.79302521 .00000129 00000-0 23999-4 0 9992 2 40071 98.4105 230.2088 0009336 142.7535 217.4332 14.81243983254097 UKUBE-1 1 40074U 14037F 19080.62904261 .00000354 00000-0 49770-4 0 9991 2 40074 98.4222 237.5880 0005247 127.1017 233.0666 14.83989047254442 HODOYOSHI-1 1 40299U 14070B 19080.44849667 .00000684 00000-0 31756-4 0 9996 2 40299 97.3533 162.0427 0012906 4.9479 123.6861 15.23250902242687 CHUBUSAT-1 1 40300U 14070C 19080.77909087 .00000877 00000-0 41281-4 0 9996 2 40300 97.3341 157.1845 0020522 12.0091 105.1929 15.21958289242499 QSAT-EOS 1 40301U 14070D 19080.45363378 .00001872 00000-0 75822-4 0 9993 2 40301 97.3330 159.4218 0026064 358.6601 129.5885 15.25624428242681 FIREBIRD FU3 1 40377U 15003B 19080.79943713 .00003038 00000-0 12333-3 0 9990 2 40377 99.1044 42.9189 0128808 27.0878 333.6995 15.18372057228438 FIREBIRD FU4 1 40378U 15003C 19080.85283483 .00003116 00000-0 12625-3 0 9990 2 40378 99.1047 43.0549 0129025 26.7977 333.9841 15.18377907228445 GRIFEX 1 40379U 15003D 19080.85058596 .00002080 00000-0 92189-4 0 9999 2 40379 99.1031 37.6665 0136999 43.6045 317.5912 15.15170778228136 NO-84 1 40654U 15025D 19080.38066489 .00010802 00000-0 15427-3 0 05678 2 40654 054.9864 219.6963 0145719 096.9791 264.7723 15.45533010098635 NO-83 1 40655U 15025E 19080.37374830 .00033409 00000-0 21801-3 0 06762 2 40655 054.9688 122.9466 0072549 151.5487 208.9223 15.71934332099642 DEORBITSAIL 1 40719U 15032E 19079.94241463 .00000344 00000-0 56382-4 0 9990 2 40719 097.9190 333.5419 0015095 233.4661 126.5160 14.76663327199017 NUDT-PHONESAT 1 40900U 15049B 19080.47531477 .00002440 00000-0 10842-3 0 9996 2 40900 97.4401 90.7002 0014309 131.7477 32.4432 15.22399802194086 XW-2A 1 40903U 15049E 19080.79095815 .00002130 00000-0 52700-4 0 9991 2 40903 97.3507 123.0105 0015646 105.2946 344.7279 15.41490558196554 XW-2C 1 40906U 15049H 19080.78425926 .00000883 00000-0 49922-4 0 9998 2 40906 97.4670 84.3468 0015989 141.6433 209.9040 15.15550760193520 XW-2D 1 40907U 15049J 19080.85591933 .00000885 00000-0 49774-4 0 9996 2 40907 97.4646 84.0954 0015430 138.6197 307.2967 15.15728854193559 LILACSAT-2 1 40908U 15049K 19080.42996568 .00000321 00000-0 21360-4 0 9999 2 40908 97.4776 82.6615 0016848 145.6360 351.1881 15.13725215193308 XW-2E 1 40909U 15049L 19080.31088638 .00001016 00000-0 53818-4 0 9993 2 40909 97.4598 86.1569 0015106 137.8143 347.6469 15.17578940193639 XW-2F 1 40910U 15049M 19080.70252477 .00000928 00000-0 50124-4 0 9990 2 40910 97.4622 85.7631 0016177 134.0222 315.0248 15.17094344193523 XW-2B 1 40911U 15049N 19080.74676292 .00000672 00000-0 38714-4 0 9997 2 40911 97.4677 84.6153 0015323 140.0593 274.2846 15.15660396193435 DCBB 1 40912U 15049P 19080.41081515 .00001461 00000-0 72095-4 0 9997 2 40912 97.4515 88.9289 0016612 119.9855 349.8309 15.19382341193755 TW-1C 1 40926U 15051B 19080.83179705 .00011084 00000-0 17424-3 0 9996 2 40926 97.1497 127.1827 0007733 355.9311 91.5377 15.53760390196350 TW-1A 1 40928U 15051D 19080.82666427 .00003672 00000-0 93230-4 0 9993 2 40928 97.1561 114.0800 0012611 44.5697 40.3716 15.40205371195491 IO-86 1 40931U 15052B 19080.19176183 .00000694 00000-0 74896-5 0 9992 2 40931 6.0003 334.7312 0013509 326.9153 33.0130 14.76600485188017 LQSat 1 40958U 15057A 19080.78421726 .00000005 00000-0 84347-5 0 9995 2 40958 97.9077 152.3450 0018542 161.9375 198.2490 14.73069985185716 AO-85 1 40967U 15058D 19080.35338418 .00000155 00000-0 34158-4 0 06328 2 40967 064.7753 069.6722 0208861 230.5020 127.7448 14.75899544094551 ATHENOXAT-1 1 41168U 15077C 19080.80408462 .00002006 00000-0 71612-4 0 9999 2 41168 14.9877 147.3964 0011646 298.0423 61.8720 15.13416617180499 ChubuSat-2 1 41338U 16012B 19080.86248004 .00000350 00000-0 20506-4 0 9994 2 41338 31.0041 349.2736 0013945 302.3844 57.5442 15.00109754169566 ChubuSat-3 1 41339U 16012C 19080.84244047 .00000350 00000-0 20475-4 0 9991 2 41339 31.0110 347.6138 0013787 310.2975 49.6457 15.00288031169552 Horyu-4 1 41340U 16012D 19080.87432195 .00000500 00000-0 31298-4 0 9991 2 41340 31.0056 339.6597 0013989 326.4845 33.4905 15.01195431169654 OUFTI-1 1 41458U 16025C 19080.80136412 .00001044 00000-0 58076-4 0 9998 2 41458 98.1045 163.1434 0165534 296.1848 62.2412 15.05498357159206 e-st@r-II 1 41459U 16025D 19080.46496612 .00000875 00000-0 49721-4 0 9990 2 41459 98.1048 162.5044 0166773 298.4875 59.9621 15.05163480159123 AAUSAT4 1 41460U 16025E 19080.81394485 .00001668 00000-0 88561-4 0 9992 2 41460 98.0972 163.8992 0157821 290.7177 67.7155 15.06917978159286 LO-87 1 41557U 16033B 19080.86316600 .00001309 00000-0 52195-4 0 9992 2 41557 97.4192 168.8950 0012433 249.1506 110.8402 15.26961484156535 NuSat2 1 41558U 16033C 19080.81175079 .00001347 00000-0 50662-4 0 9990 2 41558 97.4215 169.6045 0011446 251.1791 108.8207 15.28859357156557 Lapan A3 1 41603U 16040E 19080.82507817 .00000261 00000-0 15388-4 0 9999 2 41603 97.3723 141.6757 0013539 358.4934 113.8114 15.19680572152242 Swayam 1 41607U 16040J 19079.86026224 .00001493 00000-0 66323-4 0 9996 2 41607 97.3762 143.5473 0013156 354.6446 5.4648 15.23015118152203 Pratham 1 41783U 16059A 19079.93465510 .00000044 00000-0 17909-4 0 9991 2 41783 098.0788 141.4484 0032412 307.5621 052.2638 14.62978383132426 AlSat 1N 1 41789U 16059G 19080.75142593 .00000076 00000-0 23593-4 0 9993 2 41789 98.0814 144.0511 0026823 295.4565 64.3868 14.64223497132636 ScatSat 1 41790U 16059H 19079.58408122 .00000015 00000-0 15072-4 0 9993 2 41790 98.2217 126.7789 0017499 326.8400 33.1697 14.50892927131264 TY-1 1 41844U 16066D 19080.49121782 .00001833 00000-0 78250-4 0 9993 2 41844 97.4068 88.9201 0016392 136.4939 15.7907 15.24057764131107 Pegasus-1 1 41846U 16066F 19079.81342215 .00000254 00000-0 48293-4 0 9995 2 41846 098.7233 118.5324 0368542 145.4123 217.1645 14.37510120123645 CAS-2T 1 41847U 16066G 19080.68400692 .00000066 00000-0 19759-4 0 9993 2 41847 98.7181 119.9398 0366812 139.5957 223.3102 14.37964929124201 EO-88 1 42017U 17008BX 19080.15456079 .00001529 00000-0 63677-4 0 9995 2 42017 97.4125 148.1440 0007809 118.9178 241.2844 15.25241785116277 PHOENIX 1 42706U 98067LP 19080.67482090 .00105447 15235-4 34041-3 0 9999 2 42706 51.6257 5.1991 0004058 156.8340 203.2850 15.90767988105697 ZA-AeroSat 1 42713U 98067LU 19080.79496755 .00078516 00000-0 28701-3 0 9995 2 42713 51.6320 10.6271 0004056 148.1132 212.0119 15.87678202105297 NJUST-1 1 42722U 98067MB 19080.89277505 .00064214 00000-0 29379-3 0 9998 2 42722 51.6393 15.7470 0004561 165.5149 265.2883 15.83092335104308 LO-90 1 42725U 98067ME 19081.00301479 .00711173 30517-3 55170-3 0 9993 2 42725 51.6245 356.7588 0005425 203.2972 156.7892 16.14219761104470 nSIGHT1 1 42726U 98067MF 19080.32096039 .00018191 00000-0 16725-3 0 9995 2 42726 51.6381 44.6598 0004574 176.3643 183.7387 15.67747011103788 SNUSAT 1B 1 42727U 98067MG 19080.83997173 .00511010 14451-3 52314-3 0 9991 2 42727 51.6215 358.5695 0007560 191.5290 168.5552 16.10104124104399 SUSat 1 42730U 98067MK 19079.94531326 .10885211 12450-4 35996-3 0 9992 2 42730 51.6143 358.5732 0006672 231.8651 128.1776 16.44308785104146 Aoxiang-1 1 42735U 98067MQ 19080.85267752 .00068623 00000-0 28883-3 0 9998 2 42735 51.6307 13.8773 0004172 170.8592 242.1590 15.84828243105453 BeEagleSat 1 42736U 98067MR 19080.82764699 .00138546 18617-4 36213-3 0 9993 2 42736 51.6282 4.6792 0005163 180.3460 179.7545 15.94639754104267 CAS-4B 1 42759U 17034B 19080.86486380 .00000297 00000-0 31725-4 0 9993 2 42759 43.0191 358.6121 0010460 44.1558 6.4788 15.09513798 97413 CAS-4A 1 42761U 17034D 19080.18844387 .00000464 00000-0 41899-4 0 9995 2 42761 43.0184 1.9219 0010797 41.3768 104.9176 15.09590907 97309 UCLSat 1 42765U 17036A 19079.63477296 .00001313 00000-0 59569-4 0 9997 2 42765 97.3626 139.5269 0011634 178.1032 182.0251 15.22507220 96764 NIUSat 1 42766U 17036B 19080.09879960 .00000965 00000-0 46594-4 0 9990 2 42766 97.3624 138.6242 0016169 168.6988 191.4614 15.20916879 96619 LituanicaSAT 2 1 42768U 17036D 19080.72960163 .00001766 00000-0 79185-4 0 9990 2 42768 97.3653 140.1652 0015863 166.8622 193.3031 15.22411698 96773 Aalto 1 1 42775U 17036L 19079.81089923 .00000822 00000-0 39882-4 0 9994 2 42775 97.3614 138.6495 0014382 169.0440 191.1112 15.21177397 96548 URSA MAIOR 1 42776U 17036M 19079.91066516 .00000882 00000-0 42394-4 0 9997 2 42776 097.3622 138.8667 0014242 168.6434 191.5126 15.21298462096562 Max Valier Sat 1 42778U 17036P 19080.11067696 .00000921 00000-0 43505-4 0 9992 2 42778 97.3657 139.7062 0012804 171.3877 188.7581 15.21826285 96614 Pegasus 1 42784U 17036V 19080.69630512 .00001097 00000-0 50595-4 0 9997 2 42784 97.3628 140.4167 0012297 175.2133 184.9223 15.22271449 96728 NUDATSat 1 42787U 17036Y 19080.74729689 .00001573 00000-0 69556-4 0 9996 2 42787 97.3669 141.0045 0010221 173.4790 186.6588 15.23124537 96608 SUCHAI 1 1 42788U 17036Z 19080.13501570 .00001340 00000-0 60474-4 0 9999 2 42788 97.3634 140.1074 0011843 176.3319 183.8006 15.22644386 96728 SKCUBE 1 42789U 17036AA 19079.61964524 .00001292 00000-0 58582-4 0 9996 2 42789 097.3630 139.5621 0011644 178.0434 182.0850 15.22560705096563 VZLUSAT 1 1 42790U 17036AB 19079.94592271 .00001695 00000-0 74672-4 0 9995 2 42790 097.3641 140.2222 0011319 176.0909 184.0418 15.23130966096630 VENTA 1 1 42791U 17036AC 19079.59491956 .00001316 00000-0 59594-4 0 9991 2 42791 097.3629 139.5885 0011249 178.4732 181.6540 15.22585305096555 Robusta 1B 1 42792U 17036AD 19080.74301646 .00001223 00000-0 55366-4 0 9997 2 42792 97.3628 140.7880 0011326 174.6097 185.5264 15.22726410 96754 D-SAT 1 42794U 17036AF 19079.88369061 .00000378 00000-0 37931-4 0 9995 2 42794 097.5522 128.4785 0128233 081.1262 280.4451 14.91041270094952 BIRD-J 1 42820U 98067MU 19080.86096126 .00124353 16997-4 36224-3 0 9996 2 42820 51.6288 9.4705 0004564 150.5306 209.5959 15.92653330 97666 BIRD-G 1 42821U 98067MV 19080.84047837 .00093525 00000-0 32748-3 0 9997 2 42821 51.6250 13.0800 0004238 141.2542 218.8767 15.88478032 97591 BIRD-M 1 42822U 98067MW 19079.88066189 .00116241 16075-4 38162-3 0 9991 2 42822 051.6306 016.4847 0004545 144.2370 215.8941 15.90377047097481 BIRD-B 1 42823U 98067MX 19080.88819530 .00117191 16265-4 35992-3 0 9994 2 42823 51.6276 10.4322 0005624 155.7653 204.3619 15.91659872 97632 BIRD-N 1 42824U 98067MY 19079.86839431 .00111903 15687-4 37461-3 0 9998 2 42824 051.6315 017.2197 0005372 153.6473 206.4807 15.90009030097477 TechnoSat 1 42829U 17042E 19080.68745594 .00000058 00000-0 11278-4 0 9991 2 42829 97.5745 337.2169 0014318 2.8879 357.2420 14.90936816 91679 TOMSK-TPU 120 1 42910U 98067MZ 19080.71798406 .00040217 00000-0 25476-3 0 9997 2 42910 51.6362 30.3369 0004816 150.7218 281.6389 15.76116899 90962 TANYUSHA 1 1 42911U 98067NA 19080.86992078 .00061182 00000-0 30708-3 0 9993 2 42911 51.6321 23.7394 0005463 137.7608 321.9712 15.81114884 91045 TANYUSHA 2 1 42912U 98067NB 19080.75026603 .00048785 00000-0 27407-3 0 9990 2 42912 51.6402 27.6321 0004516 140.0393 293.9192 15.78738419 91003 TNS 0-2 1 42914U 98067ND 19080.76643721 .00033726 00000-0 21274-3 0 9994 2 42914 51.6367 30.9025 0004289 155.2140 204.9067 15.76304709 90953 QIKCOM-1 1 42983U 98067NF 19080.38382050 .00003165 00000-0 47725-4 0 9997 2 42983 51.6398 68.3792 0004340 142.0256 218.1043 15.58165931 79410 AO-91 1 43017U 17073E 19079.72276693 .00000602 00000-0 51771-4 0 9994 2 43017 097.7222 004.6094 0260123 091.3581 271.7442 14.78420979071961 EcAMSat 1 43019U 98067NG 19080.41322874 .00005409 00000-0 71601-4 0 9993 2 43019 51.6403 64.8581 0005232 122.6060 237.5438 15.60093052161785 PICSAT 1 43132U 18004X 19080.11230606 .00001303 00000-0 57922-4 0 9999 2 43132 97.4976 148.0764 0009269 199.6962 160.3918 15.23316381 65861 AO-92 1 43137U 18004AC 19079.63919639 .00001036 00000-0 46731-4 0 9998 2 43137 97.4970 147.6098 0008695 202.9201 157.1649 15.23260906 65788 TianYi 2 1 43155U 18008A 19080.48108434 .00001249 00000-0 78489-4 0 9991 2 43155 97.4940 154.8719 0016199 272.9015 187.5163 15.10988064 64351 Zhou Enlai 1 43156U 18008B 19080.49061726 .00000675 00000-0 44817-4 0 9995 2 43156 97.4985 154.7916 0013196 269.4069 147.3374 15.10477826 64338 TianYi 6 1 43158U 18008D 19080.44736321 .00000530 00000-0 36392-4 0 9991 2 43158 97.4950 154.3317 0012396 265.7633 157.5758 15.10100623 64292 S-Net G 1 43186U 18014G 19080.70339477 .00000545 00000-0 52887-4 0 9992 2 43186 97.7152 350.4268 0009699 310.1270 49.9101 14.96600949 61829 S-Net H 1 43187U 18014H 19080.70322571 .00000550 00000-0 53332-4 0 9992 2 43187 97.7150 350.4172 0009704 309.9756 50.0613 14.96600767 61823 S-Net J 1 43188U 18014J 19080.16813009 .00000623 00000-0 59797-4 0 9996 2 43188 97.7154 349.9033 0009720 311.9853 48.0539 14.96600591 61746 S-Net K 1 43189U 18014K 19079.96786725 .00000639 00000-0 61142-4 0 9991 2 43189 97.7150 349.6900 0009722 312.6106 47.4294 14.96599587 60263 FMN 1 1 43192U 18015A 19080.23900489 .00002348 00000-0 99996-4 0 9990 2 43192 97.3843 209.2202 0014869 246.8228 113.1446 15.23881399 62694 Shaonian Xing 1 43199U 18015H 19080.21713183 .00001813 00000-0 76487-4 0 9994 2 43199 97.3626 208.5085 0015592 259.8975 100.0504 15.24491673 62736 1KUNS-PF 1 43466U 98067NP 19080.42853820 .00015625 00000-0 17556-3 0 9999 2 43466 51.6378 66.4240 0001711 83.7360 276.3829 15.62807050 48940 UBAKUSAT 1 43467U 98067NQ 19080.47142671 .00009693 00000-0 12069-3 0 9992 2 43467 51.6374 68.2055 0003444 84.7068 275.4318 15.60656031 48933 Irazu 1 43468U 98067NR 19079.97093947 .00022810 00000-0 23746-3 0 9997 2 43468 51.6374 67.1111 0001824 77.8099 282.3100 15.64468331148881 EnduroSat One 1 43551U 98067NZ 19079.96881603 .00013689 00000-0 17050-3 0 9998 2 43551 51.6378 73.0926 0005666 156.4628 203.6625 15.60229655 39054 EQUISat 1 43552U 98067PA 19080.40484140 .00009640 00000-0 12543-3 0 9999 2 43552 51.6387 71.5120 0006046 159.2693 200.8546 15.59486451 39070 UiTMSat 1 1 43589U 98067PD 19079.95848611 .00011636 00000-0 15091-3 0 9993 2 43589 051.6363 074.5072 0005154 164.0287 196.0869 15.59334903034731 Maya 1 1 43590U 98067PE 19078.03217454 .00014199 00000-0 18283-3 0 9991 2 43590 051.6364 084.1456 0005266 157.9914 202.1306 15.59312569034367 Bhutan 1 1 43591U 98067PF 19080.33306425 .00011062 00000-0 14333-3 0 9993 2 43591 51.6371 72.5194 0005305 167.5724 192.5400 15.59419523 34721 SiriusSat 1 1 43595U 98067PG 19080.08575485 .00011979 00000-0 15853-3 0 9998 2 43595 51.6363 74.6075 0004055 116.7023 243.4385 15.58765001 33851 SiriusSat 2 1 43596U 98067PH 19080.04271090 .00012101 00000-0 16103-3 0 9997 2 43596 51.6373 75.0929 0004597 119.4112 240.7340 15.58603845 33843 Tanusha-3 1 43597U 98067PJ 19080.81599261 .00013222 00000-0 16929-3 0 9997 2 43597 51.6362 70.4639 0003819 129.7455 230.3874 15.59540035 33972 SurfSat 1 43614U 18070B 19079.96364897 .00002339 00000-0 64513-4 0 9992 2 43614 93.0349 326.6316 0013775 297.0285 62.9561 15.37106001 28622 CP-7 DAVE 1 43615U 18070C 19080.09581407 .00002204 00000-0 60904-4 0 9998 2 43615 93.0353 326.6874 0013811 295.9767 64.0063 15.37056346 28648 ELFIN-B 1 43616U 18070D 19080.13403317 .00003197 00000-0 87013-4 0 9999 2 43616 93.0311 326.6341 0014750 299.4892 60.4889 15.37477445 28657 ELFIN-A 1 43617U 18070E 19079.86953936 .00002894 00000-0 78750-4 0 9996 2 43617 093.0365 326.6698 0013752 297.3111 062.6741 15.37507072028611 STARS-Me Mother 1 43640U 98067PQ 19079.48500499 .00008273 00000-0 11928-3 0 9996 2 43640 51.6378 79.6079 0006148 111.8397 248.3250 15.56936665 25661 CubeBel 1 1 43666U 18083E 19080.80145257 .00001246 00000-0 65609-4 0 9998 2 43666 97.5285 105.8574 0016598 132.5571 334.0924 15.17375078 21806 Changshagaoxin 1 43669U 18083H 19080.85078920 .00000885 00000-0 48630-4 0 9991 2 43669 97.5146 105.4803 0012460 124.6232 235.6178 15.16631752 21761 Ten-Koh 1 43677U 18084G 19080.04634276 -.00000382 00000-0 -33565-4 0 9999 2 43677 97.8392 194.4222 0015118 213.6363 146.3883 14.90132592 21261 Diwata-2 1 43678U 18084H 19080.78401853 -.00000257 00000-0 -19987-4 0 9997 2 43678 97.8396 195.4749 0008562 233.1653 126.8772 14.91531050 21392 IRVINE 01 1 43693U 18088D 19079.62455737 .00002597 00000-0 11496-3 0 9992 2 43693 085.0393 017.5707 0019333 156.7418 203.4702 15.20968189019673 QO-100 1 43700U 18090A 19079.90536109 .00000118 00000-0 00000-0 0 9991 2 43700 000.0098 201.7465 0001685 188.0581 140.0796 01.00271939001155 Reaktor Hello World 1 43743U 18096AA 19080.48007328 .00001441 00000-0 58133-4 0 9999 2 43743 97.4696 150.5475 0016769 293.5639 122.7597 15.26376172 17121 MinXSS-2 1 43758U 18099A 19079.88726035 .00000709 00000-0 69517-4 0 9997 2 43758 097.7530 152.9711 0014098 266.3211 093.6398 14.95332373016015 AO-95 1 43770U 18099N 19080.73539445 .00000486 00000-0 50025-4 0 9990 2 43770 97.7529 153.7106 0013168 269.8760 90.0951 14.94698320 16133 RANGE-B 1 43772U 18099Q 19079.65910054 .00000289 00000-0 31882-4 0 9991 2 43772 97.7580 152.7257 0012873 259.7464 100.2305 14.94782778 15967 RANGE-A 1 43773U 18099R 19079.86057886 .00000131 00000-0 17330-4 0 9998 2 43773 097.7478 152.7903 0012209 259.2852 100.6994 14.94751661015999 MOVE-II 1 43780U 18099Y 19080.45087429 .00000131 00000-0 17314-4 0 9991 2 43780 97.7516 153.4433 0012191 268.8234 91.1590 14.94951697 16073 SNUSat 2 1 43782U 18099AA 19080.64730404 -.00000159 00000-0 -92680-5 0 9994 2 43782 97.7525 153.6670 0011438 256.6365 103.3581 14.94990365 16119 SnugLite 1 43784U 18099AC 19080.77580751 -.00000120 00000-0 -56669-5 0 9993 2 43784 97.7491 153.7559 0013709 265.2650 94.7005 14.95066177 16149 ITASat 1 1 43786U 18099AE 19079.83752454 -.00000041 00000-0 16021-5 0 9990 2 43786 097.7547 152.9081 0013754 267.6536 092.3110 14.95081065016002 EAGLET 1 1 43790U 18099AJ 19079.67625261 .00000593 00000-0 58828-4 0 9993 2 43790 97.7536 152.7982 0011919 273.3468 86.6389 14.95455920 15673 ESEO 1 43792U 18099AL 19080.74478820 .00000508 00000-0 51067-4 0 9996 2 43792 97.7516 153.8376 0011766 266.2519 93.7356 14.95476622 15899 CSIM 1 43793U 18099AM 19080.74009669 .00000804 00000-0 77664-4 0 9998 2 43793 97.7470 153.7648 0011628 262.5426 97.4474 14.95582346 15863 Astrocast 0.1 1 43798U 18099AS 19080.72966817 .00000167 00000-0 20190-4 0 9992 2 43798 97.7518 153.8607 0011229 247.5217 112.4815 14.95693278 16129 JO-97 1 43803U 18099AX 19079.89664571 .00000327 00000-0 34979-4 0 9995 2 43803 097.7504 152.9214 0013672 268.2523 091.7132 14.95198793016009 Suomi 100 1 43804U 18099AY 19080.83316383 .00000167 00000-0 20441-4 0 9998 2 43804 97.7502 153.8467 0013777 264.9714 94.9934 14.95202349 16153 Al Farabi 2 1 43805U 18099AZ 19080.83133717 .00000348 00000-0 36914-4 0 9990 2 43805 97.7503 153.8497 0013801 264.9929 94.9716 14.95239664 16152 PWSat 2 1 43814U 18099BJ 19080.80097985 .00015072 00000-0 13151-2 0 9999 2 43814 97.7702 154.0159 0009868 213.7381 146.3197 14.96893225 15540 CHOMPTT 1 43855U 18104G 19080.56145907 .00000041 00000-0 00000 0 0 9998 2 43855 85.0364 115.3661 0015740 286.7455 73.2057 15.22199992 14468 ISAT 1 43879U 18111D 19080.76398217 .00000750 00000-0 72090-4 0 9998 2 43879 97.7237 350.0342 0012339 327.9628 32.0842 14.95917231 10642 UWE-4 1 43880U 18111E 19080.81702713 .00000637 00000-0 61710-4 0 9997 2 43880 97.7242 350.1288 0011506 328.5718 31.4815 14.96158715 10662 Sparrow 1 43881U 18111F 19080.74767300 .00000552 00000-0 54071-4 0 9991 2 43881 97.7245 350.0700 0011638 327.3097 32.7403 14.96203493 10646 Lume 1 1 43908U 18111AJ 19080.84586288 .00001115 00000-0 48534-4 0 9999 2 43908 97.2963 348.4968 0020452 308.1917 51.7478 15.24131596 12918 FO-98 1 43933U 19003B 19080.83195499 .00000783 00000-0 37673-4 0 9999 2 43933 97.2943 141.2132 0019411 42.3010 23.4132 15.21488308 9541 FO-99 1 43937U 19003F 19080.82760806 .00001467 00000-0 64202-4 0 9990 2 43937 97.2889 141.3329 0025539 29.5986 61.3061 15.23334307 9554 Delphini 1 1 44030U 98067PW 19079.47866255 .00010300 00000-0 15943-3 0 9999 2 44030 51.6381 81.8138 0004390 158.2355 201.8823 15.54676760 7504 MYSat 1 1 44045U 18092F 19080.83640112 .00003134 00000-0 10352-3 0 9995 2 44045 51.6424 81.0510 0012958 122.0888 238.1342 15.34469321 5590 KickSat 2 1 44046U 18092G 19080.82800355 .00436982 98642-4 64116-3 0 9993 2 44046 51.6353 64.4014 0008032 106.4033 253.8685 16.04429098 5793 /EX